Miscellaneous Local Product
Issued by NWS North Platte, NE

Home | Current Version | Previous Version | Text Only | Print | Product List | Glossary On
Versions: 1 2 3 4 5 6 7 8 9 10 11 12 13 14 15 16 17 18 19 20 21 22 23 24 25 26 27 28 29 30 31 32 33 34 35 36 37 38 39 40 41 42 43 44 45 46 47 48 49 50
000
AXUS43 KLBF 211810
MISLBF


WESTERN AND NORTH CENTRAL NEBRASKA HOURLY WEATHER ROUNDUP
NATIONAL WEATHER SERVICE NORTH PLATTE NE
100 PM CDT THU SEP 21 2017

NOTE: "FAIR" INDICATES FEW OR NO CLOUDS BELOW 12,000 FEET WITH NO
SIGNIFICANT WEATHER AND/OR OBSTRUCTIONS TO VISIBILITY.

NOTE: STATIONS NOT REPORTING VARIABLES SUCH AS SKY/WEATHER OR
PRESSURE ARE PROVIDED BY RAWS AND APRS NETWORKS AND ARE NOT UNDER
NATIONAL WEATHER SERVICE QUALITY CONTROL.

...OBSERVATIONS IN AND NEAR THE EASTERN PANHANDLE OF NEBRASKA...

CITY           SKY/WX    TMP DP  RH WIND       PRES   REMARKS
PINE RIDGE     SUNNY     82  47  29 S12       29.67F
GORDON         FAIR      78  47  34 S13       29.70F
CHADRON        SUNNY     85  38  18 SW13      29.65F
ALLIANCE       SUNNY     76  45  33 S9        29.71F
SIDNEY         SUNNY     82  36  19 VRB6      29.75S
CRESCENT LAKE    N/A     76  50  39 S6          N/A
$$

...OBSERVATIONS IN NORTHERN NEBRASKA AND FAR SOUTHERN SOUTH DAKOTA...

CITY           SKY/WX    TMP DP  RH WIND       PRES   REMARKS
WINNER         FAIR      80  60  50 S17G24    29.68F
VALENTINE      SUNNY     82  54  37 S23G29    29.69F
THEDFORD       SUNNY     82  52  35 S13       29.72F
AINSWORTH      SUNNY     81  57  43 S21       29.70F
O`NEILL        SUNNY     81  64  57 S16       29.73F
ORD            SUNNY     82  56  40 SE13G24   29.72F
BROKEN BOW     SUNNY     85  54  34 S17G28    29.73F
VALENTINE NWR    N/A     77  57  49 S14G21      N/A
HALSEY           N/A     79  54  41 S13G25      N/A
BUTTE            N/A     76  64  65 SE16        N/A
CHAMBERS         N/A     82  62  50 S10         N/A
EWING            N/A     79  68  68 S8G16       N/A
$$

...OBSERVATIONS IN SOUTHWEST NEBRASKA AND FAR NORTHEAST COLORADO...

CITY           SKY/WX    TMP DP  RH WIND       PRES   REMARKS
WRAY           FAIR      95  30  10 S15G21    29.71F
IMPERIAL       SUNNY     83  38  20 SE13      29.73F
OGALLALA       SUNNY     83  42  23 S9        29.72F
NORTH PLATTE   SUNNY     83  53  35 S13       29.71F
MCCOOK         SUNNY     87  46  24 S12G20    29.72F
LEXINGTON      SUNNY     86  51  30 S20G25    29.74F
STAPLETON        N/A     80  55  41 E3          N/A
GOTHENBURG       N/A     79  47  31 S12         N/A
CALLAWAY         N/A     79  59  49 S18         N/A
$$

...OBSERVATIONS IN CENTRAL LINCOLN COUNTY AREA...

CITY           SKY/WX    TMP DP  RH WIND       PRES   REMARKS
N.P. AIRPORT   SUNNY     83  53  35 S13       29.71F
N.P. DOWNTOWN    N/A     80  54  40 CALM        N/A
N.P. SOUTHEAST   N/A     80  53  38 S9G16       N/A
N.P. HILLCREST   N/A     78  55  45 S13         N/A
$$

...SOME OBSERVATIONS FROM AROUND THE REGION...

CITY           SKY/WX    TMP DP  RH WIND       PRES   REMARKS
DENVER         MOSUNNY   84  21  10 SW10G20   29.77F
LIMON          SUNNY     84  22  10 SW14G23   29.82F
ASPEN          SUNNY     71  19  14 S17G32    29.95F
LARAMIE        CLOUDY    74  15  10 SW31G41   29.86F
CASPER         SUNNY     62  35  36 N3        29.76F
CHEYENNE       SUNNY     80  18  10 S15G25    29.81F
SCOTTSBLUFF    SUNNY     74  44  34 SE8       29.71F
GRAND ISLAND   SUNNY     86  63  45 SE16      29.76F
OMAHA          PTSUNNY   87  72  60 SE20      29.80F HX  93
SIOUX FALLS    PTSUNNY   81  71  71 S16G24    29.76F
PIERRE         SUNNY     80  58  46 SE26G33   29.62F
RAPID CITY     SUNNY     73  39  29 N13       29.69R
BISMARCK       SUNNY     76  54  46 S17G26    29.66F
KANSAS CITY    MOSUNNY   88  74  63 S16G25    29.90F HX  96
HILL CITY      SUNNY     93  51  23 S17G28    29.74F HX  90
WICHITA        MOSUNNY   92  71  50 S23G30    29.83F HX  98
DODGE CITY     SUNNY     91  51  25 S21G26    29.81F
OKLAHOMA CITY  PTSUNNY   89  72  56 S21G28    29.89F HX  96
DALLAS         MOSUNNY   92  72  51 S16G28    29.93F HX  99
AMARILLO       SUNNY     91  44  19 SW18G28   29.92F
$$




USA.gov is the U.S. government's official web portal to all federal, state and local government web resources and services.